TimeCDT,TemperatureF,Dew PointF,Humidity,Sea Level PressureIn,VisibilityMPH,Wind Direction,Wind SpeedMPH,Gust SpeedMPH,PrecipitationIn,Events,Conditions,WindDirDegrees,DateUTC
12:15 AM,78.8,73.4,83,30.02,10.0,ESE,5.8,-,N/A,,Scattered Clouds,120,2013-08-05 05:15:00
12:35 AM,77.0,71.6,83,30.02,10.0,SE,3.5,-,N/A,,Clear,130,2013-08-05 05:35:00
12:55 AM,78.8,69.8,74,30.01,10.0,SSE,4.6,-,N/A,,Scattered Clouds,150,2013-08-05 05:55:00
1:15 AM,78.8,68.0,69,30.02,10.0,Calm,Calm,-,N/A,,Scattered Clouds,0,2013-08-05 06:15:00
1:35 AM,77.0,69.8,78,30.01,10.0,Calm,Calm,-,N/A,,Scattered Clouds,0,2013-08-05 06:35:00
1:55 AM,77.0,69.8,78,30.01,10.0,SW,3.5,-,N/A,,Clear,230,2013-08-05 06:55:00
2:15 AM,77.0,66.2,69,30.00,10.0,SW,4.6,-,N/A,,Clear,220,2013-08-05 07:15:00
2:35 AM,77.0,66.2,69,30.00,10.0,SW,4.6,-,N/A,,Clear,220,2013-08-05 07:35:00
2:55 AM,77.0,64.4,65,29.99,10.0,South,5.8,-,N/A,,Clear,190,2013-08-05 07:55:00
3:15 AM,75.2,64.4,69,30.00,10.0,SSW,4.6,-,N/A,,Clear,210,2013-08-05 08:15:00
3:35 AM,75.2,64.4,69,30.00,10.0,SSW,5.8,-,N/A,,Clear,210,2013-08-05 08:35:00
3:55 AM,75.2,64.4,69,29.99,10.0,SW,5.8,-,N/A,,Clear,220,2013-08-05 08:55:00
4:15 AM,77.0,62.6,61,29.99,10.0,SSW,10.4,-,N/A,,Clear,200,2013-08-05 09:15:00
4:35 AM,77.0,60.8,57,29.98,10.0,SSW,10.4,-,N/A,,Clear,200,2013-08-05 09:35:00
4:55 AM,78.8,60.8,54,29.98,10.0,South,11.5,-,N/A,,Clear,190,2013-08-05 09:55:00
5:15 AM,78.8,60.8,54,29.98,10.0,SSW,11.5,-,N/A,,Clear,200,2013-08-05 10:15:00
5:35 AM,78.8,60.8,54,29.98,10.0,SSW,11.5,-,N/A,,Clear,210,2013-08-05 10:35:00
5:55 AM,77.0,60.8,57,29.99,10.0,SW,9.2,-,N/A,,Clear,220,2013-08-05 10:55:00
6:15 AM,77.0,60.8,57,29.99,10.0,SSW,10.4,-,N/A,,Clear,210,2013-08-05 11:15:00
6:35 AM,77.0,60.8,57,29.99,10.0,SSW,9.2,-,N/A,,Clear,210,2013-08-05 11:35:00
6:55 AM,75.2,60.8,61,29.99,10.0,SSW,10.4,-,N/A,,Clear,200,2013-08-05 11:55:00
7:15 AM,75.2,60.8,61,30.00,10.0,SSW,10.4,-,N/A,,Clear,210,2013-08-05 12:15:00
7:35 AM,77.0,60.8,57,30.00,10.0,SSW,11.5,-,N/A,,Clear,210,2013-08-05 12:35:00
7:55 AM,77.0,60.8,57,30.00,10.0,SSW,11.5,-,N/A,,Clear,210,2013-08-05 12:55:00
8:15 AM,78.8,60.8,54,30.00,10.0,SSW,12.7,-,N/A,,Clear,210,2013-08-05 13:15:00
8:35 AM,80.6,60.8,51,30.00,10.0,SSW,13.8,19.6,N/A,,Clear,210,2013-08-05 13:35:00
8:55 AM,80.6,60.8,51,30.00,10.0,SSW,12.7,-,N/A,,Clear,210,2013-08-05 13:55:00
9:15 AM,80.6,62.6,54,30.00,10.0,SSW,12.7,19.6,N/A,,Mostly Cloudy,210,2013-08-05 14:15:00
9:35 AM,84.2,62.6,48,29.99,10.0,SW,12.7,19.6,N/A,,Scattered Clouds,220,2013-08-05 14:35:00
9:55 AM,86.0,60.8,43,29.99,10.0,SW,18.4,-,N/A,,Clear,220,2013-08-05 14:55:00
10:15 AM,87.8,60.8,40,29.98,10.0,SW,19.6,24.2,N/A,,Clear,220,2013-08-05 15:15:00
10:35 AM,89.6,60.8,38,29.97,10.0,SW,19.6,25.3,N/A,,Clear,220,2013-08-05 15:35:00
10:55 AM,91.4,60.8,36,29.97,10.0,SW,18.4,21.9,N/A,,Clear,220,2013-08-05 15:55:00
11:15 AM,93.2,59.0,32,29.97,10.0,SW,18.4,23.0,N/A,,Clear,230,2013-08-05 16:15:00
11:35 AM,95.0,59.0,30,29.97,10.0,WSW,16.1,-,N/A,,Clear,240,2013-08-05 16:35:00
11:55 AM,95.0,59.0,30,29.97,10.0,SW,16.1,25.3,N/A,,Clear,230,2013-08-05 16:55:00
12:15 PM,96.8,59.0,28,29.96,10.0,SW,17.3,21.9,N/A,,Clear,230,2013-08-05 17:15:00
12:35 PM,98.6,57.2,25,29.96,10.0,SW,18.4,23.0,N/A,,Clear,230,2013-08-05 17:35:00
12:55 PM,98.6,55.4,24,29.96,10.0,WSW,18.4,27.6,N/A,,Clear,240,2013-08-05 17:55:00
1:15 PM,100.4,55.4,22,29.95,10.0,WSW,15.0,25.3,N/A,,Clear,240,2013-08-05 18:15:00
1:35 PM,100.4,55.4,22,29.94,10.0,WSW,13.8,20.7,N/A,,Clear,240,2013-08-05 18:35:00
1:55 PM,100.4,53.6,21,29.94,10.0,WSW,17.3,21.9,N/A,,Clear,250,2013-08-05 18:55:00
2:15 PM,102.2,55.4,21,29.93,10.0,SW,10.4,19.6,N/A,,Clear,230,2013-08-05 19:15:00
2:35 PM,102.2,53.6,20,29.93,10.0,SSW,12.7,18.4,N/A,,Clear,200,2013-08-05 19:35:00
2:55 PM,102.2,53.6,20,29.92,10.0,SW,11.5,21.9,N/A,,Clear,230,2013-08-05 19:55:00
3:15 PM,104.0,53.6,19,29.91,10.0,West,15.0,18.4,N/A,,Clear,260,2013-08-05 20:15:00
3:35 PM,104.0,55.4,20,29.91,10.0,SSW,9.2,16.1,N/A,,Clear,210,2013-08-05 20:35:00
3:55 PM,104.0,53.6,19,29.90,10.0,SSW,17.3,-,N/A,,Clear,200,2013-08-05 20:55:00
4:15 PM,104.0,53.6,19,29.89,10.0,SW,10.4,-,N/A,,Clear,220,2013-08-05 21:15:00
4:35 PM,104.0,53.6,19,29.88,10.0,South,13.8,17.3,N/A,,Clear,180,2013-08-05 21:35:00
4:55 PM,104.0,55.4,20,29.87,10.0,South,10.4,19.6,N/A,,Clear,190,2013-08-05 21:55:00
5:15 PM,102.2,53.6,20,29.86,10.0,South,13.8,20.7,N/A,,Clear,190,2013-08-05 22:15:00
5:35 PM,102.2,53.6,20,29.86,10.0,South,12.7,20.7,N/A,,Clear,180,2013-08-05 22:35:00
5:55 PM,100.4,55.4,22,29.85,10.0,South,18.4,-,N/A,Thunderstorm,Clear,190,2013-08-05 22:55:00
6:15 PM,100.4,55.4,22,29.83,10.0,South,18.4,26.5,N/A,,Clear,180,2013-08-05 23:15:00
6:35 PM,100.4,53.6,21,29.82,10.0,South,19.6,25.3,N/A,,Clear,180,2013-08-05 23:35:00
6:55 PM,98.6,55.4,24,29.83,10.0,South,16.1,24.2,N/A,,Clear,170,2013-08-05 23:55:00
7:15 PM,98.6,53.6,22,29.84,10.0,South,15.0,19.6,N/A,,Clear,180,2013-08-06 00:15:00
7:35 PM,98.6,55.4,24,29.85,10.0,South,11.5,-,N/A,,Clear,170,2013-08-06 00:35:00
7:55 PM,96.8,57.2,27,29.85,10.0,South,10.4,-,N/A,,Clear,170,2013-08-06 00:55:00
8:15 PM,95.0,59.0,30,29.85,10.0,NE,6.9,-,N/A,,Clear,40,2013-08-06 01:15:00
8:35 PM,87.8,64.4,46,29.84,10.0,NE,6.9,-,N/A,,Scattered Clouds,50,2013-08-06 01:35:00
8:55 PM,82.4,68.0,62,29.86,10.0,NNE,10.4,-,N/A,,Scattered Clouds,20,2013-08-06 01:55:00
9:15 PM,80.6,68.0,65,29.87,10.0,NE,12.7,-,N/A,,Clear,40,2013-08-06 02:15:00
9:35 PM,80.6,66.2,61,29.88,10.0,East,5.8,-,N/A,,Clear,80,2013-08-06 02:35:00
9:55 PM,78.8,66.2,65,29.90,10.0,NE,8.1,-,N/A,,Clear,40,2013-08-06 02:55:00
10:15 PM,78.8,64.4,61,29.92,10.0,NE,12.7,23.0,N/A,,Scattered Clouds,50,2013-08-06 03:15:00
10:35 PM,77.0,66.2,69,29.93,10.0,NNE,11.5,24.2,N/A,,Scattered Clouds,30,2013-08-06 03:35:00
10:55 PM,75.2,66.2,73,29.97,10.0,North,13.8,19.6,N/A,,Clear,10,2013-08-06 03:55:00
11:15 PM,73.4,66.2,78,29.99,10.0,North,13.8,18.4,N/A,,Mostly Cloudy,360,2013-08-06 04:15:00
11:35 PM,73.4,66.2,78,29.97,10.0,NNE,11.5,20.7,N/A,,Scattered Clouds,30,2013-08-06 04:35:00
11:55 PM,75.2,64.4,69,29.95,10.0,ENE,11.5,18.4,N/A,,Clear,70,2013-08-06 04:55:00